WZZ3XS EYVI-EGGW

Flight info

Callsign WZZ3XS
Flight time N/A
Altitude 34000
Route UPASI1A/01 UPASI DCT TUNGA DCT SUWGI L29 GRUDA DCT BINKA DCT LEGSA/N0451F360 DCT BERIM DCT VALKO DCT NOGRO M40 RINIS
Aircraft A321/M-SDE3FGHIRWY/LB1

Departure

Time 2026-04-27 18:33
Airport Vilnius International Airport (EYVI)

Arrival

Time N/A
Airport London Luton Airport (EGGW)
Time Latitude Longitude Altitude Speed Heading
2026-04-27 18:17 54.64467 25.28740 637 ft 0 kts 241°
2026-04-27 18:22 54.64466 25.28738 637 ft 2 kts 241°
2026-04-27 18:22 54.64452 25.28693 636 ft 5 kts 242°
2026-04-27 18:22 54.64424 25.28645 636 ft 6 kts 196°
2026-04-27 18:23 54.64374 25.28650 636 ft 7 kts 171°
2026-04-27 18:23 54.64318 25.28664 636 ft 8 kts 173°
2026-04-27 18:23 54.64248 25.28676 635 ft 11 kts 174°
2026-04-27 18:23 54.64160 25.28689 633 ft 13 kts 175°
2026-04-27 18:24 54.64057 25.28700 629 ft 16 kts 182°
2026-04-27 18:24 54.63938 25.28633 624 ft 19 kts 201°
2026-04-27 18:24 54.63804 25.28538 616 ft 23 kts 201°
2026-04-27 18:24 54.63647 25.28429 609 ft 25 kts 202°
2026-04-27 18:25 54.63477 25.28312 602 ft 26 kts 202°
2026-04-27 18:25 54.63303 25.28189 598 ft 26 kts 201°
2026-04-27 18:25 54.63127 25.28068 594 ft 27 kts 202°
2026-04-27 18:25 54.62957 25.27952 593 ft 26 kts 202°
2026-04-27 18:26 54.62791 25.27835 589 ft 22 kts 201°
2026-04-27 18:26 54.62671 25.27751 590 ft 18 kts 202°
2026-04-27 18:26 54.62608 25.27708 589 ft 3 kts 201°
2026-04-27 18:26 54.62590 25.27696 589 ft 0 kts 201°
2026-04-27 18:28 54.62590 25.27695 589 ft 0 kts 201°
2026-04-27 18:28 54.62579 25.27688 589 ft 2 kts 201°
2026-04-27 18:28 54.62548 25.27669 589 ft 6 kts 195°
2026-04-27 18:28 54.62502 25.27679 589 ft 5 kts 149°
2026-04-27 18:29 54.62496 25.27686 589 ft 0 kts 141°
2026-04-27 18:30 54.62495 25.27687 589 ft 0 kts 141°
2026-04-27 18:30 54.62480 25.27709 589 ft 5 kts 141°
2026-04-27 18:30 54.62445 25.27755 589 ft 7 kts 142°
2026-04-27 18:30 54.62404 25.27814 589 ft 8 kts 133°
2026-04-27 18:31 54.62416 25.27888 588 ft 7 kts 22°
2026-04-27 18:31 54.62419 25.27890 588 ft 0 kts 20°
2026-04-27 18:32 54.62423 25.27893 588 ft 5 kts 20°
2026-04-27 18:32 54.62672 25.28063 586 ft 72 kts 21°
2026-04-27 18:32 54.63333 25.28519 597 ft 129 kts 21°
2026-04-27 18:33 54.64305 25.29202 739 ft 164 kts 19°
2026-04-27 18:33 54.65365 25.29923 1275 ft 168 kts 18°
2026-04-27 18:33 54.66434 25.30653 2009 ft 165 kts 18°
2026-04-27 18:33 54.67494 25.31377 2613 ft 167 kts 17°
2026-04-27 18:34 54.68591 25.32116 2897 ft 176 kts 16°
2026-04-27 18:34 54.69781 25.32918 3139 ft 189 kts 16°
2026-04-27 18:34 54.71061 25.33779 3355 ft 205 kts 17°
2026-04-27 18:34 54.72440 25.34717 3750 ft 225 kts 17°
2026-04-27 18:35 54.73950 25.35746 4391 ft 245 kts 17°
2026-04-27 18:35 54.75561 25.36455 5523 ft 242 kts 358°
2026-04-27 18:35 54.77172 25.35929 6623 ft 237 kts 335°
2026-04-27 18:35 54.78517 25.34250 7376 ft 246 kts 311°
2026-04-27 18:36 54.79299 25.31626 8310 ft 257 kts 287°
2026-04-27 18:36 54.79321 25.28538 9296 ft 268 kts 261°
2026-04-27 18:36 54.78496 25.25609 10234 ft 280 kts 240°
2026-04-27 18:36 54.77380 25.22844 10980 ft 289 kts 241°
2026-04-27 18:37 54.76195 25.19867 11472 ft 306 kts 241°
2026-04-27 18:37 54.74954 25.16750 11913 ft 324 kts 241°
2026-04-27 18:37 54.73662 25.13512 12517 ft 335 kts 242°
2026-04-27 18:37 54.72520 25.10042 13324 ft 334 kts 250°
2026-04-27 18:38 54.71520 25.06416 14205 ft 334 kts 252°
2026-04-27 18:38 54.70547 25.02813 14863 ft 334 kts 252°
2026-04-27 18:38 54.69553 24.99162 15355 ft 338 kts 252°
2026-04-27 18:38 54.68540 24.95490 15862 ft 341 kts 253°
2026-04-27 18:39 54.67503 24.91771 16396 ft 343 kts 253°
2026-04-27 18:39 54.66468 24.88086 16888 ft 346 kts 253°
2026-04-27 18:39 54.65416 24.84357 17373 ft 349 kts 253°
2026-04-27 18:39 54.64348 24.80584 17875 ft 350 kts 253°
2026-04-27 18:40 54.63269 24.76792 18337 ft 353 kts 253°
2026-04-27 18:40 54.62197 24.73028 18786 ft 355 kts 254°
2026-04-27 18:40 54.61106 24.69207 19243 ft 358 kts 254°
2026-04-27 18:40 54.60000 24.65333 19689 ft 360 kts 254°
2026-04-27 18:41 54.58888 24.61446 20128 ft 363 kts 254°
2026-04-27 18:41 54.57778 24.57578 20523 ft 366 kts 254°
2026-04-27 18:41 54.56646 24.53637 20964 ft 367 kts 254°
2026-04-27 18:41 54.55512 24.49704 21376 ft 369 kts 254°
2026-04-27 18:42 54.54364 24.45730 21800 ft 371 kts 254°
2026-04-27 18:42 54.53606 24.43106 22074 ft 371 kts 254°
2026-04-27 18:42 54.52074 24.37814 22592 ft 376 kts 254°
2026-04-27 18:42 54.50896 24.33760 23076 ft 377 kts 253°
2026-04-27 18:43 54.49729 24.29744 23535 ft 380 kts 253°
2026-04-27 18:43 54.48555 24.25709 23983 ft 382 kts 253°
2026-04-27 18:43 54.47356 24.21600 24457 ft 383 kts 253°
2026-04-27 18:43 54.46159 24.17500 24870 ft 385 kts 253°
2026-04-27 18:44 54.44964 24.13413 25234 ft 388 kts 253°
2026-04-27 18:44 54.43742 24.09240 25574 ft 391 kts 253°
2026-04-27 18:44 54.42534 24.05119 25961 ft 393 kts 253°
2026-04-27 18:44 54.41290 24.00897 26365 ft 394 kts 253°
2026-04-27 18:45 54.40058 23.96717 26679 ft 397 kts 253°
2026-04-27 18:45 54.38811 23.92489 27007 ft 400 kts 252°
2026-04-27 18:45 54.37558 23.88255 27389 ft 401 kts 252°
2026-04-27 18:45 54.36270 23.83913 27747 ft 403 kts 252°
2026-04-27 18:46 54.35011 23.79668 28074 ft 405 kts 252°
2026-04-27 18:46 54.33734 23.75367 28396 ft 407 kts 252°
2026-04-27 18:46 54.32441 23.71026 28708 ft 410 kts 252°
2026-04-27 18:46 54.31141 23.66665 29009 ft 412 kts 252°
2026-04-27 18:47 54.29830 23.62287 29321 ft 414 kts 252°
2026-04-27 18:47 54.28529 23.57944 29624 ft 415 kts 252°
2026-04-27 18:47 54.27196 23.53503 29896 ft 418 kts 252°
2026-04-27 18:47 54.25858 23.49051 30216 ft 419 kts 251°
2026-04-27 18:48 54.24521 23.44620 30640 ft 418 kts 251°
2026-04-27 18:48 54.23203 23.40264 31059 ft 416 kts 251°
2026-04-27 18:48 54.21854 23.35872 31411 ft 416 kts 250°
2026-04-27 18:48 54.20471 23.31555 31699 ft 417 kts 249°
2026-04-27 18:49 54.19059 23.27195 31981 ft 418 kts 249°
2026-04-27 18:49 54.17660 23.22882 32248 ft 418 kts 249°
2026-04-27 18:49 54.16248 23.18529 32563 ft 418 kts 249°
2026-04-27 18:49 54.14846 23.14206 32883 ft 417 kts 249°
2026-04-27 18:50 54.13443 23.09883 33175 ft 417 kts 249°
2026-04-27 18:50 54.12051 23.05598 33465 ft 417 kts 248°
2026-04-27 18:50 54.10654 23.01274 33732 ft 416 kts 249°
2026-04-27 18:50 54.09355 22.96847 33991 ft 413 kts 252°
2026-04-27 18:51 54.08210 22.92380 34137 ft 410 kts 255°
2026-04-27 18:51 54.07200 22.87797 34149 ft 408 kts 258°
2026-04-27 18:51 54.05650 22.78536 34157 ft 403 kts 264°
2026-04-27 18:52 54.04547 22.69234 34171 ft 402 kts 265°
2026-04-27 18:53 54.02912 22.55204 34186 ft 404 kts 265°
2026-04-27 18:53 54.02355 22.50455 34328 ft 405 kts 265°
2026-04-27 18:53 54.01802 22.45774 34538 ft 404 kts 265°
2026-04-27 18:53 54.01252 22.41122 34677 ft 404 kts 265°
2026-04-27 18:54 54.00690 22.36389 34794 ft 405 kts 265°
2026-04-27 18:54 54.00125 22.31659 34918 ft 406 kts 264°
2026-04-27 18:54 53.99560 22.26941 35045 ft 407 kts 264°
2026-04-27 18:54 53.98988 22.22168 35199 ft 408 kts 264°
2026-04-27 18:55 53.98421 22.17456 35355 ft 409 kts 264°
2026-04-27 18:55 53.97853 22.12744 35495 ft 410 kts 264°
2026-04-27 18:55 53.97272 22.07946 35641 ft 411 kts 264°
2026-04-27 18:55 53.96692 22.03185 35774 ft 412 kts 264°
2026-04-27 18:56 53.96108 21.98404 35911 ft 413 kts 264°
2026-04-27 18:56 53.95523 21.93637 36030 ft 413 kts 264°
2026-04-27 18:56 53.94933 21.88843 36105 ft 414 kts 264°
2026-04-27 18:57 53.93744 21.79230 36188 ft 415 kts 264°
2026-04-27 18:57 53.92551 21.69651 36186 ft 415 kts 264°
2026-04-27 18:58 53.91342 21.60013 36193 ft 416 kts 264°
2026-04-27 18:58 53.90132 21.50418 36202 ft 416 kts 263°
2026-04-27 18:59 53.88916 21.40848 36206 ft 417 kts 263°
2026-04-27 18:59 53.87681 21.31200 36210 ft 417 kts 263°
2026-04-27 19:00 53.86444 21.21606 36199 ft 417 kts 263°
2026-04-27 19:00 53.85204 21.12057 36196 ft 417 kts 263°
2026-04-27 19:01 53.83955 21.02525 36191 ft 416 kts 263°
2026-04-27 19:01 53.82690 20.92942 36195 ft 416 kts 263°
2026-04-27 19:02 53.81425 20.83414 36200 ft 416 kts 263°
2026-04-27 19:02 53.80141 20.73809 36204 ft 415 kts 263°
2026-04-27 19:03 53.78866 20.64318 36200 ft 415 kts 263°
2026-04-27 19:03 53.77572 20.54774 36196 ft 415 kts 263°
2026-04-27 19:04 53.76266 20.45198 36215 ft 415 kts 263°
2026-04-27 19:04 53.74968 20.35721 36225 ft 415 kts 263°
2026-04-27 19:05 53.73645 20.26137 36223 ft 415 kts 262°
2026-04-27 19:05 53.72322 20.16607 36227 ft 415 kts 262°
2026-04-27 19:06 53.70987 20.07062 36223 ft 415 kts 262°
2026-04-27 19:06 53.69649 19.97563 36224 ft 415 kts 262°
2026-04-27 19:07 53.68302 19.88044 36328 ft 418 kts 262°
2026-04-27 19:07 53.67624 19.83280 36518 ft 416 kts 262°
2026-04-27 19:07 53.66946 19.78535 36705 ft 415 kts 262°
2026-04-27 19:07 53.66271 19.73825 36855 ft 414 kts 262°
2026-04-27 19:08 53.65596 19.69123 36964 ft 415 kts 262°
2026-04-27 19:08 53.64901 19.64299 37069 ft 415 kts 262°
2026-04-27 19:08 53.64229 19.59647 37164 ft 416 kts 262°
2026-04-27 19:08 53.63546 19.54934 37276 ft 416 kts 261°
2026-04-27 19:09 53.62861 19.50223 37382 ft 416 kts 261°
2026-04-27 19:09 53.62166 19.45465 37485 ft 417 kts 262°
2026-04-27 19:09 53.61465 19.40676 37649 ft 415 kts 261°
2026-04-27 19:09 53.60784 19.36043 37862 ft 412 kts 262°
2026-04-27 19:10 53.60096 19.31368 38084 ft 408 kts 261°
2026-04-27 19:10 53.59419 19.26776 38214 ft 408 kts 261°
2026-04-27 19:10 53.58733 19.22135 38229 ft 410 kts 261°
2026-04-27 19:11 53.57338 19.12731 38241 ft 416 kts 261°
2026-04-27 19:11 53.55924 19.03275 38245 ft 421 kts 261°
2026-04-27 19:12 53.54485 18.93721 38242 ft 418 kts 261°
2026-04-27 19:12 53.53392 18.84171 38236 ft 413 kts 267°
2026-04-27 19:13 53.52923 18.74602 38228 ft 410 kts 272°
2026-04-27 19:13 53.53067 18.65042 38237 ft 407 kts 278°
2026-04-27 19:14 53.53679 18.55637 38264 ft 406 kts 280°
2026-04-27 19:14 53.54009 18.50899 38082 ft 407 kts 280°
2026-04-27 19:14 53.54340 18.46137 38176 ft 406 kts 280°
2026-04-27 19:15 53.54993 18.36669 38228 ft 408 kts 280°
2026-04-27 19:15 53.55640 18.27171 38191 ft 409 kts 279°
2026-04-27 19:16 53.56279 18.17694 38224 ft 409 kts 279°
2026-04-27 19:16 53.56916 18.08141 38230 ft 410 kts 279°
2026-04-27 19:17 53.57543 17.98599 38230 ft 409 kts 279°
2026-04-27 19:17 53.58158 17.89127 38231 ft 409 kts 279°
2026-04-27 19:18 53.58767 17.79624 38240 ft 409 kts 279°
2026-04-27 19:18 53.59370 17.70093 38249 ft 409 kts 279°
2026-04-27 19:19 53.59968 17.60543 38257 ft 410 kts 279°
2026-04-27 19:19 53.60559 17.50986 38252 ft 410 kts 279°
2026-04-27 19:20 53.61137 17.41461 38235 ft 410 kts 279°
2026-04-27 19:20 53.61712 17.31889 38224 ft 411 kts 278°
2026-04-27 19:21 53.62276 17.22358 38220 ft 411 kts 278°
2026-04-27 19:21 53.62838 17.12747 38240 ft 412 kts 278°
2026-04-27 19:22 53.63396 17.03085 38247 ft 412 kts 278°
2026-04-27 19:22 53.63940 16.93508 38248 ft 411 kts 278°
2026-04-27 19:23 53.64478 16.83898 38251 ft 411 kts 278°
2026-04-27 19:23 53.65005 16.74325 38241 ft 410 kts 278°
2026-04-27 19:24 53.65530 16.64676 38225 ft 411 kts 278°
2026-04-27 19:24 53.66043 16.55102 38222 ft 411 kts 278°
2026-04-27 19:25 53.66552 16.45455 38234 ft 412 kts 278°
2026-04-27 19:25 53.67050 16.35853 38246 ft 413 kts 278°
2026-04-27 19:26 53.67545 16.26162 38254 ft 413 kts 277°
2026-04-27 19:26 53.68029 16.16551 38253 ft 412 kts 277°
2026-04-27 19:27 53.68505 16.06923 38240 ft 413 kts 277°
2026-04-27 19:27 53.68974 15.97301 38234 ft 413 kts 277°
2026-04-27 19:28 53.69435 15.87656 38229 ft 412 kts 277°
2026-04-27 19:28 53.69887 15.78026 38235 ft 412 kts 277°
2026-04-27 19:29 53.70335 15.68346 38239 ft 413 kts 277°
2026-04-27 19:29 53.70775 15.58671 38244 ft 414 kts 277°
2026-04-27 19:30 53.71207 15.48958 38243 ft 414 kts 277°
2026-04-27 19:30 53.71631 15.39304 38254 ft 413 kts 277°
2026-04-27 19:31 53.72046 15.29636 38263 ft 414 kts 276°
2026-04-27 19:31 53.72453 15.19995 38261 ft 413 kts 276°
2026-04-27 19:32 53.72852 15.10334 38258 ft 413 kts 276°
2026-04-27 19:32 53.73246 15.00609 38257 ft 413 kts 276°
2026-04-27 19:33 53.73629 14.90968 38252 ft 413 kts 276°
2026-04-27 19:33 53.74006 14.81280 38253 ft 414 kts 276°
2026-04-27 19:34 53.74376 14.71548 38253 ft 414 kts 276°
2026-04-27 19:34 53.74737 14.61853 38257 ft 415 kts 276°
2026-04-27 19:35 53.75094 14.52094 38248 ft 415 kts 276°
2026-04-27 19:35 53.75438 14.42416 38255 ft 415 kts 276°
2026-04-27 19:36 53.75776 14.32664 38258 ft 414 kts 275°
2026-04-27 19:36 53.75959 14.22898 38257 ft 415 kts 272°
2026-04-27 19:37 53.75972 14.13173 38257 ft 415 kts 272°
2026-04-27 19:37 53.75977 14.03439 38253 ft 416 kts 272°
2026-04-27 19:38 53.75973 13.93647 38247 ft 416 kts 272°
2026-04-27 19:38 53.75961 13.83897 38257 ft 416 kts 272°
2026-04-27 19:39 53.75941 13.74051 38266 ft 417 kts 272°
2026-04-27 19:39 53.75914 13.64291 38263 ft 417 kts 272°
2026-04-27 19:40 53.75879 13.54505 38253 ft 417 kts 272°
2026-04-27 19:40 53.75836 13.44664 38253 ft 417 kts 272°
2026-04-27 19:41 53.75784 13.34896 38249 ft 417 kts 271°
2026-04-27 19:41 53.75725 13.25120 38247 ft 418 kts 271°
2026-04-27 19:42 53.75658 13.15310 38246 ft 418 kts 271°
2026-04-27 19:42 53.75583 13.05432 38259 ft 418 kts 271°
2026-04-27 19:43 53.75499 12.95614 38254 ft 418 kts 271°
2026-04-27 19:43 53.75407 12.85762 38248 ft 418 kts 271°
2026-04-27 19:44 53.75299 12.75937 38254 ft 419 kts 271°
2026-04-27 19:44 53.75143 12.66022 38265 ft 419 kts 270°
2026-04-27 19:45 53.74976 12.56149 38271 ft 418 kts 270°
2026-04-27 19:45 53.74803 12.46315 38272 ft 418 kts 270°
2026-04-27 19:46 53.74622 12.36384 38274 ft 419 kts 270°
2026-04-27 19:46 53.74435 12.26554 38281 ft 420 kts 270°
2026-04-27 19:47 53.74238 12.16620 38277 ft 419 kts 269°
2026-04-27 19:47 53.74035 12.06807 38264 ft 419 kts 269°
2026-04-27 19:48 53.73821 11.96915 38276 ft 420 kts 270°
2026-04-27 19:48 53.73601 11.87035 38277 ft 420 kts 270°
2026-04-27 19:49 53.73371 11.77110 38269 ft 420 kts 269°
2026-04-27 19:49 53.73136 11.67329 38248 ft 419 kts 269°
2026-04-27 19:50 53.72886 11.57471 38231 ft 420 kts 269°
2026-04-27 19:50 53.72251 11.47654 38255 ft 422 kts 263°
2026-04-27 19:51 53.70994 11.37921 38278 ft 423 kts 257°
2026-04-27 19:51 53.69313 11.28419 38257 ft 424 kts 255°
2026-04-27 19:52 53.67601 11.18900 38246 ft 424 kts 255°
2026-04-27 19:52 53.65878 11.09369 38245 ft 424 kts 255°
2026-04-27 19:53 53.63272 10.95045 38246 ft 425 kts 255°
2026-04-27 19:53 53.61530 10.85531 38249 ft 425 kts 255°
2026-04-27 19:54 53.59772 10.75986 38252 ft 424 kts 255°
2026-04-27 19:54 53.58022 10.66526 38244 ft 425 kts 255°
2026-04-27 19:55 53.56244 10.56960 38240 ft 425 kts 255°
2026-04-27 19:55 53.54459 10.47423 38235 ft 425 kts 255°
2026-04-27 19:56 53.53570 10.42690 38345 ft 426 kts 255°
2026-04-27 19:56 53.52675 10.37936 38288 ft 424 kts 255°
2026-04-27 19:56 53.50891 10.28486 38247 ft 424 kts 255°
2026-04-27 19:57 53.49103 10.19058 38253 ft 425 kts 255°
2026-04-27 19:57 53.47280 10.09498 38250 ft 424 kts 254°
2026-04-27 19:58 53.45474 10.00074 38241 ft 425 kts 254°
2026-04-27 19:58 53.43653 9.90630 38236 ft 425 kts 254°
2026-04-27 19:59 53.41831 9.81226 38233 ft 425 kts 254°
2026-04-27 19:59 53.39993 9.71773 38239 ft 425 kts 254°
2026-04-27 20:00 53.38157 9.62378 38236 ft 424 kts 254°
2026-04-27 20:00 53.36301 9.52931 38245 ft 424 kts 254°
2026-04-27 20:01 53.34453 9.43575 38240 ft 424 kts 254°
2026-04-27 20:01 53.32577 9.34125 38236 ft 424 kts 253°
2026-04-27 20:02 53.30715 9.24788 38232 ft 424 kts 254°
2026-04-27 20:02 53.28838 9.15404 38220 ft 424 kts 253°
2026-04-27 20:03 53.26950 9.06022 38221 ft 424 kts 253°
2026-04-27 20:03 53.25048 8.96622 38233 ft 425 kts 253°
2026-04-27 20:04 53.23155 8.87307 38240 ft 424 kts 253°
2026-04-27 20:04 53.21238 8.77920 38237 ft 424 kts 253°
2026-04-27 20:05 53.19317 8.68554 38231 ft 425 kts 253°
2026-04-27 20:05 53.17401 8.59257 38240 ft 424 kts 253°
2026-04-27 20:06 53.16237 8.53620 38239 ft 424 kts 253°